Weather History for Glens Falls, NY

Change the Weather History Date:

Tuesday, April 22, 2014

  Actual Average Record
Temperature  
Mean Temperature 62 °F 47 °F  
Max Temperature 73 °F 60 °F 84 °F (1973)
Min Temperature 50 °F 35 °F 21 °F (1975)
Degree Days  
Heating Degree Days 3 18  
Month to date heating degree days 383 484  
Since 1 July heating degree days 7462 7147  
Cooling Degree Days 0 0  
Month to date cooling degree days 0 0  
Year to date cooling degree days 0 0  
Growing Degree Days 14 (Base 50)    
Moisture  
Dew Point 40 °F    
Average Humidity 56    
Maximum Humidity 86    
Minimum Humidity 25    
Precipitation  
Precipitation 0.04 in 0.10 in 1.58 in (1969)
Month to date precipitation 1.97 2.15  
Year to date precipitation 9.22 10.03  
Sea Level Pressure  
Sea Level Pressure 29.58 in    
Wind  
Wind Speed 7 mph (SSW)    
Max Wind Speed 17 mph    
Max Gust Speed 25 mph    
Visibility 9 miles    
Events Rain    
T = Trace of Precipitation, MM = Missing Value Source: NWS Daily Summary

Daily Weather History Graph

Daily Weather History Graph

Search for Another Location

Airport:

Trip Planner

Search our weather history database for the weather conditions in past years. The results will help you decide how hot, cold, wet, or windy it might be!

Date:

Astronomy

Apr. 22, 2014 Rise Set
Actual Time 6:00 AM EDT 7:45 PM EDT
Civil Twilight 5:30 AM EDT 8:16 PM EDT
Nautical Twilight 4:53 AM EDT 8:53 PM EDT
Astronomical Twilight 4:14 AM EDT 9:33 PM EDT
Moon 1:59 AM EDT (4/22) 12:32 PM EDT (4/22)
Length of Visible Light 14h 45m
Length of Day
13h 44m
Last Quarter, 46% of the Moon is Illuminated
Apr 22
Last Quarter
Apr 29
New
May 6
First Quarter
May 14
Full
May 21
Last Quarter

Hourly Weather History & Observations

Time (EDT) Temp. Dew Point Humidity Pressure Visibility Wind Dir Wind Speed Gust Speed Precip Events Conditions
12:53 AM 57.9 °F 30.0 °F 35% 29.77 in 10.0 mi South 5.8 mph - N/A   Overcast
1:53 AM 60.1 °F 25.0 °F 26% 29.75 in 10.0 mi SSW 4.6 mph - N/A   Clear
2:53 AM 59.0 °F 26.1 °F 28% 29.73 in 10.0 mi SSW 6.9 mph - N/A   Clear
3:53 AM 57.0 °F 27.0 °F 32% 29.71 in 10.0 mi SW 5.8 mph - N/A   Clear
4:53 AM 55.9 °F 30.0 °F 37% 29.69 in 10.0 mi SSW 5.8 mph - N/A   Clear
5:53 AM 55.9 °F 30.9 °F 39% 29.68 in 10.0 mi SW 3.5 mph - N/A   Clear
6:53 AM 55.9 °F 34.0 °F 44% 29.67 in 10.0 mi SW 5.8 mph - N/A   Clear
7:53 AM 57.9 °F 35.1 °F 42% 29.65 in 10.0 mi SW 8.1 mph - N/A   Clear
8:53 AM 57.9 °F 35.1 °F 42% 29.63 in 10.0 mi SSW 9.2 mph - N/A   Clear
9:53 AM 59.0 °F 36.0 °F 42% 29.62 in 10.0 mi SW 10.4 mph - N/A   Mostly Cloudy
10:53 AM 63.0 °F 37.0 °F 38% 29.60 in 10.0 mi SW 6.9 mph - N/A   Partly Cloudy
11:53 AM 66.0 °F 37.0 °F 34% 29.56 in 10.0 mi South 4.6 mph - N/A   Overcast
12:53 PM 70.0 °F 37.9 °F 31% 29.52 in 10.0 mi South 9.2 mph - N/A   Scattered Clouds
1:53 PM 73.0 °F 46.0 °F 38% 29.49 in 10.0 mi SW 8.1 mph - N/A   Mostly Cloudy
2:53 PM 71.1 °F 46.0 °F 41% 29.49 in 10.0 mi WSW 11.5 mph 19.6 mph N/A   Overcast
3:53 PM 66.9 °F 50.0 °F 54% 29.48 in 10.0 mi SW 11.5 mph - N/A   Overcast
4:53 PM 66.0 °F 48.9 °F 54% 29.48 in 10.0 mi SW 5.8 mph - N/A   Overcast
5:53 PM 61.0 °F 52.0 °F 72% 29.49 in 5.0 mi SSW 9.2 mph - 0.02 in Rain Light Rain
6:53 PM 57.9 °F 54.0 °F 87% 29.48 in 5.0 mi South 6.9 mph - 0.02 in Rain Light Rain
7:53 PM 57.0 °F 53.1 °F 87% 29.48 in 6.0 mi South 6.9 mph - 0.00 in   Mostly Cloudy
8:53 PM 55.9 °F 52.0 °F 87% 29.49 in 6.0 mi SSE 5.8 mph - N/A   Clear
9:53 PM 55.0 °F 50.0 °F 83% 29.50 in 10.0 mi WSW 5.8 mph - N/A   Mostly Cloudy
10:53 PM 55.9 °F 50.0 °F 80% 29.50 in 10.0 mi South 6.9 mph - N/A   Overcast
11:53 PM 55.9 °F 46.9 °F 72% 29.49 in 10.0 mi SSW 8.1 mph - N/A   Partly Cloudy